User: anonymous
Location: St. Malo Provincial Park
(49.3214°N, 96.9305°W)
Time: 06:43:37
(UTC-05:00)
Language:

Iridium 6 - Orbit

View from above orbital plane
View from above orbital plane
View from above satellite
View from above satellite

Ground track
Ground track

The orbit data is extracted from the following two-line orbital elements,

1 24794U 97020C   14113.46203492  .00000590  00000-0  20345-3 0  5968
2 24794 086.3959 079.8777 0002331 104.7634 255.3820 14.34219733888261
Epoch (UTC): 23 April 2014 11:05:19
Eccentricity: 0.0002331
inclination: 86.3959°
perigee height: 776 km
apogee height: 779 km
right ascension of ascending node: 79.8777°
argument of perigee: 104.7634°
revolutions per day: 14.34219733
mean anomaly at epoch: 255.3820°
orbit number at epoch: 88826

The dashed part of the orbit path shows where the satellite is in the earth's shadow,  

DLR